Regional Weather Roundup
Issued by NWS

Home | Current Version | Previous Version | Text Only | Print | Product List | Glossary On
Versions: 1 2 3 4 5 6 7 8 9 10 11 12 13 14 15 16 17 18 19 20 21 22 23 24 25 26 27 28
000
ASUS46 KSEW 231910
RWRWA

WASHINGTON REGIONAL WEATHER ROUNDUP
NATIONAL WEATHER SERVICE SEATTLE WA
1100 AM PST THU NOV 23 2017

NOTE:"FAIR" INDICATES FEW OR NO CLOUDS BELOW 12,000 FEET WITH NO
SIGNIFICANT WEATHER AND/OR OBSTRUCTIONS TO VISIBILITY.

WAZ507-509-555>559-232000-
SEATTLE, TACOMA, EVERETT, AND VICINITY

CITY           SKY/WX    TMP DP  RH WIND       PRES   REMARKS
EVERETT        LGT RAIN  50  49  96 N6        29.81F FOG
BOEING FIELD   CLOUDY    55  52  89 VRB7      29.81F
RENTON         CLOUDY    56  53  90 S9        29.81S
SEATAC AIRPORT CLOUDY    54  52  93 S13       29.82S
JBLM-MCCHORD   CLOUDY    54  54 100 SW9       29.84R
PUYALLUP       DRIZZLE   54  54 100 W9        29.85R
BREMERTON      LGT RAIN  53  52  96 SW13      29.81R
JBLM-FT LEWIS  CLOUDY    54  54 100 S12       29.83R
TACOMA NARROWS LGT RAIN  52  52 100 SW8       29.83R FOG
$$

WAZ001-503-506-510-514-515-232000-
NORTH INTERIOR

CITY           SKY/WX    TMP DP  RH WIND       PRES   REMARKS
BELLINGHAM     LGT RAIN  51  49  92 S6        29.80R
FRIDAY HARBOR  LGT RAIN  49  45  86 VRB6      29.81S
EASTSOUND      CLOUDY    52  48  87 S9        29.79S
PORT ANGELES   LGT RAIN  50  49  96 W10       29.82S FOG
EDIZ HOOK      LGT RAIN  50  49  95 W5        29.82S
PORT TOWNSEND  LGT RAIN  52  50  93 W6        29.81S
NAS WHIDBEY    LGT RAIN  52  45  77 NW18G26   29.83F
ARLINGTON      LGT RAIN  52  49  89 VRB5      29.82S
BURLINGTON     CLOUDY    52  48  87 NW5       29.82R
$$

WAZ020-022-039-040-504-511-512-232000-
SOUTHWEST INTERIOR

CITY           SKY/WX    TMP DP  RH WIND       PRES   REMARKS
SHELTON        LGT RAIN  53  50  89 W16G25    29.82R
OLYMPIA        LGT RAIN  54  53  97 W10       29.86R FOG
CHEHALIS       FAIR      55  55 100 SW7       29.88R
KELSO          LGT RAIN  55  53  93 VRB5      29.91R
VANCOUVER      LGT RAIN  61  59  93 SW9       29.89R
SCAPPOOSE, OR  PTSUNNY   62  58  86 SW7       29.87F
PORTLAND, OR   LGT RAIN  61  58  90 SW14G29   29.90S FOG
$$

WAZ021-516-517-232000-
WASHINGTON COAST

CITY           SKY/WX    TMP DP  RH WIND       PRES   REMARKS
FORKS          MOSUNNY   51  50  96 SW5       29.84R
HOQUIAM        LGT RAIN  52  52 100 SW6       29.87S FOG
ASTORIA, OR    LGT RAIN  53  52  96 SW12G20   29.91R FOG
$$

WAZ019-023-024-040-567>569-232000-
CASCADE MOUNTAINS AND COLUMBIA GORGE

CITY           SKY/WX    TMP DP  RH WIND       PRES   REMARKS
STAMPEDE PASS  LGT RAIN  42  31  64 SW14G25   29.77R
TROUTDALE, OR  LGT RAIN  62  58  86 SW10G22   29.90S
HOOD RIVER, OR MOCLDY    63  54  72 SW7       29.84F
THE DALLES, OR CLOUDY    55  54  96 CALM      29.83F FOG
$$

WAZ026-027-041>044-520-521-232000-
EAST SLOPES

CITY           SKY/WX    TMP DP  RH WIND       PRES   REMARKS
OMAK           CLOUDY    46  45  96 SE7       29.71F
WENATCHEE      PTSUNNY   48  48 100 SE8       29.72F FOG
ELLENSBURG     FOG       49  46  90 SE7       29.75F VSB 3/4
YAKIMA         MOSUNNY   67  52  58 SW20G29   29.73F
SUNNYSIDE ARPT MOCLDY    64  51  63 S18       29.80S
YAKIMA TC      MOCLDY    60  51  71 SW8       29.72F
$$

WAZ028-034-035-232000-
COLUMBIA BASIN

CITY           SKY/WX    TMP DP  RH WIND       PRES   REMARKS
EPHRATA        FOG       50  47  89 CALM      29.74F VSB 1
MOSES LAKE     MOSUNNY   58  52  80 S8        29.74F
PASCO          SUNNY     68  55  63 SW22G33   29.80F
RICHLAND ARPT  MOCLDY    69  56  63 SW17G33   29.80F
HERMISTON, OR  PTSUNNY   62  56  80 W7        29.84F
$$

WAZ036>038-232000-
NORTHEAST WASHINGTON

CITY           SKY/WX    TMP DP  RH WIND       PRES   REMARKS
SPOKANE GEIGER PTSUNNY   56  52  86 SW28G38   29.74F
SPOKANE FELTS  PTSUNNY   59  52  77 SW22      29.75F
FAIRCHILD AFB  NOT AVBL
COEURDALENE,ID CLOUDY    62  50  64 SW26G37   29.74F
DEER PARK      CLOUDY    55  51  86 SW20G30   29.74F
$$

WAZ029>033-232000-
SOUTHEAST WASHINGTON

CITY           SKY/WX    TMP DP  RH WIND       PRES   REMARKS
PULLMAN        LGT RAIN  56  51  84 SW21G28   29.87F
LEWISTON, ID   CLOUDY    56  53  90 CALM      29.86F
WALLA WALLA    CLOUDY    60  55  83 S12       29.86F
PENDLETON, OR  LGT RAIN  61  53  75 SW20G25   29.86F
$$




USA.gov is the U.S. government's official web portal to all federal, state and local government web resources and services.